{"data":{"norad_id":57349,"intl_designator":"2023-099X","name":"STARLINK-6376","alt_names":[],"object_type":"PAYLOAD","status":"ACTIVE","operator":null,"country":"US","launch_date":"2023-07-16","launch_site_code":"AFETR","launch_vehicle":null,"mission":null,"orbit_class":"UNKNOWN","rcs_meters":null,"size_class":null,"mass_kg":null,"dimensions":null,"purposes":["comms"],"wikipedia_slug":null,"has_3d_model":false,"image_url":null,"decayed_at":null,"tle_current":{"epoch":"2026-05-24T10:40:29.068032Z","epoch_age_seconds":137225,"freshness":"FRESH","line1":"1 57349U 23099X   26144.44478088  .00000262  00000+0  19060-4 0  9990","line2":"2 57349  43.0011 181.0407 0001513 263.7120  96.3559 15.27576629158428","mean_motion":15.27576629,"eccentricity":0.0001513,"inclination_deg":43.0011,"raan_deg":181.0407,"arg_perigee_deg":263.712,"mean_anomaly_deg":96.3559,"bstar":1.906e-5,"rev_number":15842,"period_min":94.26695673805,"perigee_km":482.02109106137,"apogee_km":484.09728902848,"semimajor_km":6861.1961900449,"source":"CELESTRAK","updated_at":"2026-05-25T13:38:18.290042Z"}}}